G7NPW-1 Weather Reports


time (UTC)temp
C
wind
direction
speed
KPH
gust
KPH
rain 1hr
cm
rain 24hr
cm
rain mn
cm
humidity
%
barometer
mb
20260903203504 20 270 16.1 16.1 0.00 0.00 0.00 68 1012.9
20260903203004 20 270 16.1 16.1 0.00 0.00 0.00 68 1012.9
20260903202004 20 270 16.1 16.1 0.00 0.00 0.00 68 1012.9
20260903200503 20 270 16.1 16.1 0.00 0.00 0.00 68 1012.9
20260903195004 20 270 16.1 16.1 0.00 0.00 0.00 68 1012.9
20260903191504 20 270 16.1 16.1 0.00 0.00 0.00 68 1012.9
20260903191004 20 270 16.1 16.1 0.00 0.00 0.00 68 1012.9
20260903190504 20 270 16.1 20.9 0.00 0.00 0.00 68 1012.9
20260903190004 20 270 16.1 20.9 0.00 0.00 0.00 68 1012.9
20260903181503 22 270 20.9 20.9 0.00 0.00 0.00 60 1012.9
20260903181004 22 270 20.9 20.9 0.00 0.00 0.00 60 1012.9
20260903171503 22 270 20.9 20.9 0.00 0.00 0.00 60 1012.9
20260903171004 22 270 20.9 20.9 0.00 0.00 0.00 60 1012.9
20260903165504 23 240 33.8 33.8 0.00 0.00 0.00 50 1013.9
20260903163004 23 240 33.8 33.8 0.00 0.00 0.00 50 1013.9
20260903162503 23 240 33.8 33.8 0.00 0.00 0.00 50 1013.9
20260903162004 23 240 33.8 33.8 0.00 0.00 0.00 50 1013.9
20260903153504 22 250 27.4 27.4 0.00 0.00 0.00 56 1013.9
20260903153004 22 250 27.4 27.4 0.00 0.00 0.00 56 1013.9
20260903152504 22 250 27.4 27.4 0.00 0.00 0.00 56 1013.9
20260903151004 22 250 27.4 27.4 0.00 0.00 0.00 56 1013.9
20260903150504 22 250 27.4 32.2 0.00 0.00 0.00 56 1013.9
20260903150004 22 250 27.4 32.2 0.00 0.00 0.00 56 1013.9
20260903145503 22 260 32.2 32.2 0.00 0.00 0.00 53 1013.9
20260903144004 22 260 32.2 32.2 0.00 0.00 0.00 53 1013.9
20260903143504 22 260 32.2 32.2 0.00 0.00 0.00 53 1013.9
20260903142504 22 260 32.2 32.2 0.00 0.00 0.00 53 1013.9
20260903142004 22 260 32.2 32.2 0.00 0.00 0.00 53 1013.9
20260903141504 22 260 32.2 32.2 0.00 0.00 0.00 53 1013.9
20260903140004 22 260 32.2 32.2 0.00 0.00 0.00 53 1013.9
20260903135004 22 240 29.0 29.0 0.00 0.00 0.00 56 1014.9
20260903134504 22 240 29.0 29.0 0.00 0.00 0.00 56 1014.9
20260903133004 22 240 29.0 29.0 0.00 0.00 0.00 56 1014.9
20260903131503 22 240 29.0 29.0 0.00 0.00 0.00 56 1014.9
20260903125503 22 240 29.0 29.0 0.00 0.00 0.00 56 1014.9
20260903124004 22 240 29.0 29.0 0.00 0.00 0.00 56 1014.9
20260903123004 22 240 29.0 29.0 0.00 0.00 0.00 56 1014.9
20260903122004 22 240 29.0 29.0 0.00 0.00 0.00 56 1014.9
20260903121504 22 240 29.0 29.0 0.00 0.00 0.00 56 1014.9
20260903115004 21 250 33.8 33.8 0.00 0.00 0.00 60 1014.9
20260903114004 21 250 33.8 33.8 0.00 0.00 0.00 60 1014.9
20260903113004 21 250 33.8 33.8 0.00 0.00 0.00 60 1014.9
20260903112504 21 250 33.8 33.8 0.00 0.00 0.00 60 1014.9
20260903111504 21 250 33.8 33.8 0.00 0.00 0.00 60 1014.9
20260903111004 21 250 33.8 33.8 0.00 0.00 0.00 60 1014.9
20260903110004 21 250 33.8 33.8 0.00 0.00 0.00 60 1014.9
20260903105504 20 240 29.0 29.0 0.00 0.00 0.00 68 1014.9
20260903104503 20 240 29.0 29.0 0.00 0.00 0.00 68 1014.9
20260903103504 20 240 29.0 29.0 0.00 0.00 0.00 68 1014.9
20260903102004 20 240 29.0 29.0 0.00 0.00 0.00 68 1014.9
20260903101004 20 240 29.0 29.0 0.00 0.00 0.00 68 1014.9
20260903100504 20 240 29.0 29.0 0.00 0.00 0.00 68 1014.9
20260903095504 18 240 25.7 25.7 0.00 0.00 0.00 77 1014.9
20260903092004 18 240 25.7 25.7 0.00 0.00 0.00 77 1014.9
20260903091003 18 240 25.7 25.7 0.00 0.00 0.00 77 1014.9
20260903081004 17 240 20.9 20.9 0.00 0.00 0.00 82 1012.9
20260903075004 17 240 20.9 20.9 0.00 0.00 0.00 82 1012.9
20260903072004 17 240 20.9 20.9 0.00 0.00 0.00 82 1012.9
20260903071004 17 240 20.9 20.9 0.00 0.00 0.00 82 1012.9
20260903070504 17 240 20.9 22.5 0.00 0.00 0.00 82 1012.9
20260903070004 17 240 20.9 22.5 0.00 0.00 0.00 82 1012.9
20260903065504 18 220 22.5 22.5 0.00 0.00 0.00 82 1012.9
20260903065005 18 220 22.5 22.5 0.00 0.00 0.00 82 1012.9
20260903064504 18 220 22.5 22.5 0.00 0.00 0.00 82 1012.9
20260903064005 18 220 22.5 22.5 0.00 0.00 0.00 82 1012.9
20260903063504 18 220 22.5 22.5 0.00 0.00 0.00 82 1012.9
20260903061503 18 220 22.5 22.5 0.00 0.00 0.00 82 1012.9
20260903061003 18 220 22.5 22.5 0.00 0.00 0.00 82 1012.9
20260903060007 18 220 22.5 22.5 0.00 0.00 0.00 82 1012.9